{"data":{"norad_id":63557,"epoch":"2026-09-20T18:05:07.864800Z","epoch_age_seconds":133763,"freshness":"FRESH","line1":"1 63557U 25075K   26263.75356325  .00206883  00000+0  15489-2 0  9995","line2":"2 63557  42.9995  58.3290 0000530 230.9326 129.1494 15.71252473 83925","mean_motion":15.71252473,"eccentricity":5.3e-5,"inclination_deg":42.9995,"raan_deg":58.329,"arg_perigee_deg":230.9326,"mean_anomaly_deg":129.1494,"bstar":0.0015489,"rev_number":8392,"period_min":91.646633799761,"perigee_km":354.95952141842,"apogee_km":355.67326747823,"semimajor_km":6733.4533944483,"source":"CELESTRAK","updated_at":"2026-09-21T09:00:35.020782Z"}}